KPF1FJ LOWS-LIBG

Flight info

Callsign KPF1FJ
Flight time 1h 25m
Altitude 41000
Route VERDA DCT DARZA DCT RILIM DCT AIOSA/N0397F190 L862 KAPPO
Aircraft CL60/M-SBDE1E2E3FGHIJ1J4J5J7M3RWXYZ/LB1V1D1

Departure

Time 2026-05-06 16:23
Airport Salzburg Airport (LOWS)

Arrival

Time 2026-05-06 17:48
Airport Taranto-Grottaglie Marcello Arlotta Airport (LIBG)
Time Latitude Longitude Altitude Speed Heading
2026-05-06 16:04 47.79592 12.99875 1418 ft 0 kts 15°
2026-05-06 16:18 47.79599 12.99851 1418 ft 6 kts 212°
2026-05-06 16:18 47.79549 12.99894 1418 ft 10 kts 91°
2026-05-06 16:19 47.79551 12.99983 1418 ft 9 kts 144°
2026-05-06 16:19 47.79481 13.00031 1418 ft 12 kts 158°
2026-05-06 16:19 47.79389 13.00088 1418 ft 15 kts 157°
2026-05-06 16:19 47.79277 13.00158 1418 ft 18 kts 156°
2026-05-06 16:20 47.79147 13.00241 1418 ft 21 kts 157°
2026-05-06 16:20 47.79003 13.00335 1418 ft 21 kts 157°
2026-05-06 16:20 47.78871 13.00416 1418 ft 18 kts 157°
2026-05-06 16:20 47.78759 13.00488 1418 ft 16 kts 157°
2026-05-06 16:21 47.78657 13.00553 1418 ft 15 kts 156°
2026-05-06 16:21 47.78562 13.00614 1418 ft 14 kts 156°
2026-05-06 16:21 47.78528 13.00685 1419 ft 7 kts 82°
2026-05-06 16:21 47.78542 13.00760 1419 ft 11 kts 71°
2026-05-06 16:22 47.78575 13.00860 1419 ft 6 kts 27°
2026-05-06 16:22 47.78633 13.00832 1419 ft 13 kts 337°
2026-05-06 16:22 47.78973 13.00616 1419 ft 102 kts 338°
2026-05-06 16:22 47.79895 13.00033 1587 ft 169 kts 335°
2026-05-06 16:23 47.80977 12.99293 2408 ft 172 kts 333°
2026-05-06 16:23 47.82098 12.98898 3188 ft 176 kts 357°
2026-05-06 16:23 47.83331 12.99484 3952 ft 205 kts 29°
2026-05-06 16:23 47.84567 13.00775 4755 ft 228 kts 34°
2026-05-06 16:24 47.85915 13.02214 5495 ft 257 kts 35°
2026-05-06 16:24 47.87438 13.03833 6241 ft 280 kts 36°
2026-05-06 16:24 47.89061 13.05561 6981 ft 286 kts 36°
2026-05-06 16:24 47.90679 13.07291 7727 ft 289 kts 37°
2026-05-06 16:25 47.92067 13.09443 8500 ft 294 kts 58°
2026-05-06 16:25 47.92809 13.12251 9259 ft 295 kts 83°
2026-05-06 16:25 47.92852 13.15335 10037 ft 299 kts 95°
2026-05-06 16:25 47.92497 13.18338 10785 ft 296 kts 114°
2026-05-06 16:26 47.91441 13.20935 11540 ft 293 kts 137°
2026-05-06 16:26 47.89811 13.22732 12312 ft 290 kts 159°
2026-05-06 16:26 47.87883 13.23564 13075 ft 289 kts 173°
2026-05-06 16:26 47.85905 13.24117 13840 ft 291 kts 174°
2026-05-06 16:27 47.83935 13.24677 14617 ft 292 kts 174°
2026-05-06 16:27 47.81921 13.25250 15354 ft 294 kts 174°
2026-05-06 16:27 47.79916 13.25820 16108 ft 296 kts 174°
2026-05-06 16:27 47.77871 13.26401 16861 ft 299 kts 174°
2026-05-06 16:28 47.75824 13.26981 17637 ft 304 kts 174°
2026-05-06 16:28 47.73740 13.27571 18418 ft 309 kts 174°
2026-05-06 16:28 47.71600 13.28174 19180 ft 319 kts 174°
2026-05-06 16:28 47.69379 13.28800 19943 ft 330 kts 174°
2026-05-06 16:29 47.67074 13.29448 20500 ft 345 kts 174°
2026-05-06 16:29 47.64640 13.30131 21002 ft 360 kts 174°
2026-05-06 16:29 47.62133 13.30837 21525 ft 374 kts 174°
2026-05-06 16:29 47.59539 13.31567 22042 ft 385 kts 174°
2026-05-06 16:30 47.56857 13.32324 22553 ft 394 kts 173°
2026-05-06 16:30 47.55061 13.32836 22897 ft 398 kts 173°
2026-05-06 16:30 47.51545 13.34824 23583 ft 414 kts 155°
2026-05-06 16:30 47.49047 13.36973 24086 ft 417 kts 155°
2026-05-06 16:31 47.46537 13.39130 24593 ft 421 kts 155°
2026-05-06 16:31 47.43954 13.41340 25193 ft 426 kts 155°
2026-05-06 16:31 47.41380 13.43541 25849 ft 428 kts 155°
2026-05-06 16:31 47.38808 13.45739 26515 ft 430 kts 155°
2026-05-06 16:32 47.36207 13.47957 27061 ft 433 kts 155°
2026-05-06 16:32 47.33571 13.50202 27566 ft 437 kts 156°
2026-05-06 16:32 47.30946 13.52434 28028 ft 441 kts 156°
2026-05-06 16:32 47.28247 13.54726 28486 ft 445 kts 156°
2026-05-06 16:33 47.25563 13.57004 28933 ft 448 kts 156°
2026-05-06 16:33 47.22867 13.59289 29373 ft 450 kts 156°
2026-05-06 16:33 47.20112 13.61622 29855 ft 452 kts 156°
2026-05-06 16:34 47.14686 13.66212 31071 ft 446 kts 156°
2026-05-06 16:34 47.11994 13.68484 31672 ft 444 kts 157°
2026-05-06 16:34 47.09297 13.70758 32221 ft 442 kts 157°
2026-05-06 16:34 47.06627 13.73006 32760 ft 439 kts 156°
2026-05-06 16:35 47.03940 13.75264 33226 ft 439 kts 156°
2026-05-06 16:35 47.01277 13.77499 33657 ft 438 kts 156°
2026-05-06 16:35 46.98611 13.79733 34061 ft 438 kts 156°
2026-05-06 16:35 46.95984 13.81932 34473 ft 438 kts 156°
2026-05-06 16:36 46.93333 13.84150 34830 ft 437 kts 156°
2026-05-06 16:36 46.90680 13.86367 35207 ft 435 kts 156°
2026-05-06 16:36 46.88009 13.88595 35500 ft 436 kts 156°
2026-05-06 16:36 46.85391 13.90776 35804 ft 436 kts 156°
2026-05-06 16:37 46.82704 13.93012 36121 ft 435 kts 156°
2026-05-06 16:37 46.80073 13.95200 36420 ft 434 kts 156°
2026-05-06 16:37 46.77438 13.97388 36764 ft 433 kts 156°
2026-05-06 16:37 46.74813 13.99566 37140 ft 432 kts 156°
2026-05-06 16:38 46.72210 14.01722 37487 ft 432 kts 155°
2026-05-06 16:38 46.69564 14.03912 37818 ft 432 kts 155°
2026-05-06 16:38 46.66967 14.06059 38088 ft 432 kts 155°
2026-05-06 16:38 46.64349 14.08220 38325 ft 432 kts 155°
2026-05-06 16:39 46.61736 14.10375 38615 ft 432 kts 155°
2026-05-06 16:39 46.59114 14.12536 38872 ft 432 kts 155°
2026-05-06 16:39 46.56472 14.14709 38895 ft 436 kts 155°
2026-05-06 16:40 46.51145 14.19082 38900 ft 442 kts 155°
2026-05-06 16:40 46.45733 14.23517 38916 ft 446 kts 155°
2026-05-06 16:41 46.40332 14.27935 38914 ft 446 kts 155°
2026-05-06 16:41 46.34901 14.32367 38925 ft 446 kts 155°
2026-05-06 16:42 46.29479 14.36782 38902 ft 446 kts 155°
2026-05-06 16:42 46.24047 14.41194 38900 ft 446 kts 155°
2026-05-06 16:43 46.18621 14.45591 38892 ft 446 kts 155°
2026-05-06 16:43 46.13197 14.49977 38926 ft 446 kts 155°
2026-05-06 16:44 46.07693 14.54416 38920 ft 447 kts 155°
2026-05-06 16:44 46.02260 14.58789 38929 ft 448 kts 154°
2026-05-06 16:45 45.96801 14.63172 38923 ft 449 kts 155°
2026-05-06 16:45 45.91298 14.67582 38921 ft 448 kts 155°
2026-05-06 16:46 45.85848 14.71937 38908 ft 449 kts 155°
2026-05-06 16:46 45.80395 14.76287 38916 ft 448 kts 155°
2026-05-06 16:47 45.74910 14.80651 38906 ft 448 kts 155°
2026-05-06 16:47 45.69465 14.84973 38911 ft 448 kts 155°
2026-05-06 16:48 45.63967 14.89328 38917 ft 449 kts 155°
2026-05-06 16:48 45.58510 14.93641 38910 ft 449 kts 155°
2026-05-06 16:49 45.53030 14.97962 38908 ft 450 kts 155°
2026-05-06 16:49 45.47499 15.02129 38915 ft 448 kts 159°
2026-05-06 16:50 45.41859 15.05902 38925 ft 448 kts 159°
2026-05-06 16:50 45.36169 15.09705 38933 ft 448 kts 159°
2026-05-06 16:51 45.30541 15.13462 38926 ft 448 kts 159°
2026-05-06 16:51 45.24875 15.17236 38934 ft 448 kts 159°
2026-05-06 16:52 45.19244 15.20980 38927 ft 449 kts 159°
2026-05-06 16:52 45.13583 15.24737 38933 ft 448 kts 159°
2026-05-06 16:53 45.07891 15.28507 38930 ft 448 kts 160°
2026-05-06 16:53 45.02220 15.32254 38940 ft 449 kts 160°
2026-05-06 16:54 44.96555 15.35991 38932 ft 450 kts 160°
2026-05-06 16:54 44.90859 15.39739 38934 ft 450 kts 160°
2026-05-06 16:55 44.85176 15.43470 38942 ft 450 kts 160°
2026-05-06 16:55 44.79488 15.47198 38946 ft 450 kts 160°
2026-05-06 16:56 44.73817 15.50906 38958 ft 449 kts 160°
2026-05-06 16:56 44.68111 15.54629 38962 ft 449 kts 160°
2026-05-06 16:57 44.62438 15.58323 38957 ft 449 kts 160°
2026-05-06 16:57 44.56745 15.62021 38963 ft 449 kts 160°
2026-05-06 16:58 44.51080 15.65694 38962 ft 449 kts 161°
2026-05-06 16:58 44.45407 15.69364 38957 ft 448 kts 161°
2026-05-06 16:59 44.39803 15.72981 38965 ft 448 kts 161°
2026-05-06 16:59 44.34137 15.76629 38968 ft 449 kts 161°
2026-05-06 17:00 44.28471 15.80271 38972 ft 449 kts 161°
2026-05-06 17:00 44.22804 15.83905 38977 ft 448 kts 161°
2026-05-06 17:01 44.17099 15.87557 38978 ft 447 kts 161°
2026-05-06 17:01 44.11466 15.91154 38976 ft 447 kts 161°
2026-05-06 17:02 44.05799 15.94766 38973 ft 446 kts 162°
2026-05-06 17:02 44.00152 15.98357 38975 ft 446 kts 162°
2026-05-06 17:03 43.94475 16.01958 38981 ft 447 kts 162°
2026-05-06 17:03 43.88785 16.05561 38989 ft 447 kts 162°
2026-05-06 17:04 43.83130 16.09134 38977 ft 449 kts 162°
2026-05-06 17:04 43.77417 16.12736 38988 ft 449 kts 162°
2026-05-06 17:05 43.71703 16.16331 38989 ft 450 kts 162°
2026-05-06 17:05 43.66004 16.19909 38984 ft 451 kts 162°
2026-05-06 17:06 43.60289 16.23489 38990 ft 452 kts 162°
2026-05-06 17:06 43.54535 16.27088 38988 ft 453 kts 162°
2026-05-06 17:07 43.48756 16.30693 38996 ft 454 kts 162°
2026-05-06 17:07 43.42976 16.34292 38992 ft 455 kts 162°
2026-05-06 17:08 43.37207 16.37877 38991 ft 456 kts 162°
2026-05-06 17:08 43.31420 16.41464 38997 ft 456 kts 162°
2026-05-06 17:09 43.25597 16.45067 38994 ft 457 kts 162°
2026-05-06 17:09 43.19772 16.48663 38998 ft 459 kts 162°
2026-05-06 17:10 43.13952 16.52249 38994 ft 460 kts 162°
2026-05-06 17:10 43.08132 16.55827 38985 ft 461 kts 162°
2026-05-06 17:11 43.02271 16.59423 38997 ft 462 kts 162°
2026-05-06 17:11 42.96378 16.63030 38993 ft 462 kts 162°
2026-05-06 17:12 42.90480 16.66633 38986 ft 463 kts 163°
2026-05-06 17:12 42.84575 16.70234 38985 ft 464 kts 162°
2026-05-06 17:13 42.78672 16.73825 38990 ft 465 kts 162°
2026-05-06 17:13 42.72770 16.77407 38978 ft 465 kts 162°
2026-05-06 17:14 42.66861 16.80987 38973 ft 464 kts 162°
2026-05-06 17:14 42.60957 16.84535 38976 ft 464 kts 162°
2026-05-06 17:15 42.55047 16.88072 38980 ft 464 kts 163°
2026-05-06 17:15 42.49116 16.91613 38975 ft 464 kts 162°
2026-05-06 17:16 42.43183 16.95148 38976 ft 465 kts 162°
2026-05-06 17:16 42.37273 16.98663 38977 ft 465 kts 162°
2026-05-06 17:17 42.31322 17.02195 38971 ft 465 kts 162°
2026-05-06 17:17 42.25394 17.05706 38970 ft 465 kts 162°
2026-05-06 17:18 42.19455 17.09216 38978 ft 465 kts 162°
2026-05-06 17:18 42.13541 17.12704 38976 ft 465 kts 162°
2026-05-06 17:19 42.07594 17.16205 38978 ft 466 kts 162°
2026-05-06 17:19 42.01615 17.19716 38977 ft 467 kts 162°
2026-05-06 17:20 41.95655 17.23210 38972 ft 467 kts 162°
2026-05-06 17:20 41.89683 17.26705 38976 ft 467 kts 162°
2026-05-06 17:21 41.83697 17.30203 38982 ft 467 kts 162°
2026-05-06 17:21 41.77749 17.33671 38825 ft 469 kts 162°
2026-05-06 17:21 41.74744 17.35420 38263 ft 467 kts 162°
2026-05-06 17:22 41.71808 17.37130 37703 ft 462 kts 162°
2026-05-06 17:22 41.68840 17.38856 37135 ft 460 kts 162°
2026-05-06 17:22 41.65890 17.40568 36585 ft 460 kts 162°
2026-05-06 17:22 41.62969 17.42260 35987 ft 462 kts 162°
2026-05-06 17:23 41.60017 17.43969 35375 ft 462 kts 162°
2026-05-06 17:23 41.57072 17.45673 34761 ft 463 kts 162°
2026-05-06 17:23 41.54087 17.47397 34124 ft 464 kts 162°
2026-05-06 17:23 41.51149 17.49094 33527 ft 465 kts 162°
2026-05-06 17:24 41.48162 17.50817 32913 ft 466 kts 162°
2026-05-06 17:24 41.45164 17.52544 32285 ft 468 kts 162°
2026-05-06 17:24 41.42200 17.54250 31665 ft 469 kts 161°
2026-05-06 17:24 41.39197 17.55977 31050 ft 471 kts 161°
2026-05-06 17:25 41.36166 17.57718 30420 ft 473 kts 161°
2026-05-06 17:25 41.33113 17.59471 29786 ft 474 kts 161°
2026-05-06 17:25 41.30104 17.61196 29149 ft 476 kts 161°
2026-05-06 17:25 41.27053 17.62945 28528 ft 473 kts 161°
2026-05-06 17:26 41.24027 17.64678 27893 ft 469 kts 160°
2026-05-06 17:26 41.21050 17.66382 27277 ft 463 kts 161°
2026-05-06 17:26 41.18086 17.68076 26665 ft 458 kts 161°
2026-05-06 17:26 41.15185 17.69731 26060 ft 453 kts 161°
2026-05-06 17:27 41.12311 17.71369 25473 ft 448 kts 161°
2026-05-06 17:27 41.09472 17.72986 24878 ft 444 kts 160°
2026-05-06 17:27 41.06614 17.74611 24290 ft 440 kts 160°
2026-05-06 17:27 41.03830 17.76191 23700 ft 436 kts 160°
2026-05-06 17:28 41.01064 17.77761 23124 ft 431 kts 160°
2026-05-06 17:28 40.98331 17.79311 22559 ft 426 kts 160°
2026-05-06 17:28 40.95616 17.80849 21992 ft 422 kts 160°
2026-05-06 17:28 40.92929 17.82369 21438 ft 418 kts 160°
2026-05-06 17:29 40.90241 17.83889 20885 ft 414 kts 160°
2026-05-06 17:29 40.87618 17.85371 20336 ft 410 kts 160°
2026-05-06 17:29 40.84972 17.86864 19795 ft 407 kts 160°
2026-05-06 17:29 40.82373 17.88330 19252 ft 404 kts 160°
2026-05-06 17:30 40.79834 17.89760 18729 ft 400 kts 160°
2026-05-06 17:30 40.77283 17.91196 18205 ft 397 kts 160°
2026-05-06 17:30 40.74733 17.92630 17684 ft 394 kts 160°
2026-05-06 17:30 40.72204 17.94051 17151 ft 392 kts 160°
2026-05-06 17:31 40.69685 17.95273 16601 ft 385 kts 169°
2026-05-06 17:31 40.67036 17.95613 15862 ft 376 kts 186°
2026-05-06 17:31 40.64536 17.94946 15223 ft 364 kts 202°
2026-05-06 17:31 40.62325 17.93420 14565 ft 355 kts 217°
2026-05-06 17:32 40.60514 17.91216 13485 ft 360 kts 232°
2026-05-06 17:32 40.59279 17.88418 13054 ft 345 kts 247°
2026-05-06 17:32 40.58589 17.85463 12615 ft 334 kts 257°
2026-05-06 17:32 40.58098 17.82528 12204 ft 324 kts 257°
2026-05-06 17:33 40.57617 17.79685 11774 ft 316 kts 257°
2026-05-06 17:33 40.57147 17.76913 11376 ft 308 kts 257°
2026-05-06 17:33 40.56686 17.74197 10965 ft 302 kts 257°
2026-05-06 17:33 40.56226 17.71493 10556 ft 296 kts 257°
2026-05-06 17:34 40.55782 17.68882 10169 ft 291 kts 257°
2026-05-06 17:34 40.55339 17.66285 9796 ft 286 kts 257°
2026-05-06 17:34 40.54905 17.63741 9399 ft 282 kts 257°
2026-05-06 17:34 40.54476 17.61237 9037 ft 277 kts 256°
2026-05-06 17:35 40.54054 17.58769 8604 ft 275 kts 256°
2026-05-06 17:35 40.53635 17.56326 8258 ft 270 kts 256°
2026-05-06 17:35 40.53220 17.53910 7890 ft 272 kts 256°
2026-05-06 17:36 40.51582 17.49600 7217 ft 263 kts 214°
2026-05-06 17:36 40.49914 17.48841 7164 ft 246 kts 188°
2026-05-06 17:36 40.48277 17.48682 7320 ft 229 kts 185°
2026-05-06 17:36 40.46661 17.48566 7324 ft 226 kts 185°
2026-05-06 17:37 40.45098 17.48486 7006 ft 227 kts 178°
2026-05-06 17:37 40.43535 17.48889 6619 ft 231 kts 166°
2026-05-06 17:37 40.41988 17.49487 6301 ft 230 kts 165°
2026-05-06 17:37 40.40472 17.50093 6021 ft 222 kts 165°
2026-05-06 17:38 40.38990 17.50693 5950 ft 227 kts 165°
2026-05-06 17:38 40.37470 17.51312 5950 ft 221 kts 165°
2026-05-06 17:38 40.36032 17.51903 5856 ft 210 kts 165°
2026-05-06 17:38 40.34637 17.52479 5302 ft 213 kts 165°
2026-05-06 17:39 40.33212 17.53067 4787 ft 212 kts 165°
2026-05-06 17:39 40.31821 17.53645 4300 ft 209 kts 165°
2026-05-06 17:39 40.30426 17.54167 3824 ft 204 kts 173°
2026-05-06 17:39 40.29066 17.53797 3346 ft 198 kts 213°
2026-05-06 17:40 40.28300 17.52267 3062 ft 202 kts 256°
2026-05-06 17:40 40.28540 17.50428 2808 ft 216 kts 296°
2026-05-06 17:40 40.29554 17.48948 2576 ft 222 kts 320°
2026-05-06 17:40 40.30855 17.47785 2433 ft 225 kts 324°
2026-05-06 17:41 40.32178 17.46657 2311 ft 226 kts 325°
2026-05-06 17:41 40.33505 17.45544 2176 ft 226 kts 330°
2026-05-06 17:41 40.34993 17.44862 2140 ft 224 kts 346°
2026-05-06 17:41 40.36469 17.44404 2154 ft 213 kts 346°
2026-05-06 17:42 40.37910 17.43985 2152 ft 211 kts 348°
2026-05-06 17:42 40.39341 17.43598 2148 ft 201 kts 348°
2026-05-06 17:42 40.40687 17.43241 2042 ft 195 kts 348°
2026-05-06 17:42 40.42017 17.42890 1772 ft 192 kts 348°
2026-05-06 17:43 40.43317 17.42549 1547 ft 184 kts 349°
2026-05-06 17:43 40.44536 17.42228 1267 ft 171 kts 348°
2026-05-06 17:43 40.45605 17.41914 1215 ft 147 kts 342°
2026-05-06 17:43 40.46508 17.41317 1284 ft 145 kts 326°
2026-05-06 17:44 40.47359 17.40591 1357 ft 145 kts 322°
2026-05-06 17:44 40.48165 17.39860 1365 ft 138 kts 322°
2026-05-06 17:44 40.48981 17.39096 1415 ft 143 kts 321°
2026-05-06 17:44 40.49818 17.38357 1418 ft 146 kts 332°
2026-05-06 17:45 40.50795 17.37968 1438 ft 147 kts 351°
2026-05-06 17:45 40.51805 17.37725 1489 ft 147 kts 349°
2026-05-06 17:45 40.52811 17.37413 1539 ft 148 kts 348°
2026-05-06 17:45 40.53824 17.37117 1589 ft 148 kts 347°
2026-05-06 17:46 40.54824 17.36840 1601 ft 143 kts
2026-05-06 17:46 40.55719 17.37378 1416 ft 147 kts 57°
2026-05-06 17:46 40.55902 17.38587 1340 ft 125 kts 112°
2026-05-06 17:46 40.55331 17.39367 1131 ft 122 kts 161°
2026-05-06 17:47 40.54518 17.39607 884 ft 116 kts 170°
2026-05-06 17:47 40.53704 17.39814 631 ft 123 kts 168°
2026-05-06 17:47 40.52884 17.40028 393 ft 118 kts 169°
2026-05-06 17:47 40.52050 17.40248 234 ft 125 kts 168°
2026-05-06 17:48 40.51286 17.40452 206 ft 94 kts 169°
2026-05-06 17:48 40.51036 17.40520 204 ft 12 kts 167°
2026-05-06 17:48 40.50980 17.40531 204 ft 8 kts 258°
2026-05-06 17:48 40.50981 17.40427 204 ft 12 kts 261°
2026-05-06 17:49 40.50969 17.40347 203 ft 8 kts 259°
2026-05-06 17:49 40.50956 17.40260 203 ft 7 kts 259°
2026-05-06 17:49 40.50942 17.40172 202 ft 11 kts 258°
2026-05-06 17:49 40.50934 17.40098 201 ft 7 kts 288°
2026-05-06 17:50 40.50962 17.40050 201 ft 7 kts 336°
2026-05-06 17:50 40.51000 17.39981 200 ft 10 kts 302°
2026-05-06 17:50 40.51035 17.39962 200 ft 4 kts 37°
2026-05-06 17:50 40.51048 17.40006 201 ft 5 kts 91°
2026-05-06 17:51 40.51048 17.40017 201 ft 0 kts 89°